Stündliche Wetter Labuti

Heute, 11 Mai, Dienstag

Zeit Temperatur Niederschläge Wind Luftdruck Luftfeuchtigkeit
00:00 +10°C° 0 mm 4 m/S 756 mmHg 82%
01:00 +8°C° 0 mm 4 m/S 756 mmHg 83%
02:00 +9°C° 0 mm 3 m/S 756 mmHg 84%
03:00 +8°C° 0 mm 3 m/S 756 mmHg 83%
04:00 +8°C° 0 mm 3 m/S 756 mmHg 82%
05:00 +8°C° 0 mm 3 m/S 756 mmHg 81%
06:00 +10°C° 0 mm 4 m/S 756 mmHg 75%
07:00 +12°C° 0 mm 4 m/S 756 mmHg 68%
08:00 +14°C° 0 mm 4 m/S 756 mmHg 62%
09:00 +15°C° 0 mm 4 m/S 756 mmHg 58%
10:00 +17°C° 0 mm 4 m/S 756 mmHg 54%
11:00 +18°C° 0 mm 4 m/S 756 mmHg 50%
12:00 +19°C° 0 mm 4 m/S 756 mmHg 48%
13:00 +20°C° 0 mm 4 m/S 756 mmHg 46%
14:00 +20°C° 0 mm 4 m/S 755 mmHg 44%
15:00 +20°C° 0 mm 4 m/S 755 mmHg 48%
16:00 +20°C° 0 mm 4 m/S 755 mmHg 51%
17:00 +20°C° 0 mm 4 m/S 755 mmHg 54%
18:00 +18°C° 0 mm 4 m/S 754 mmHg 60%
19:00 +15°C° 0 mm 4 m/S 754 mmHg 66%
20:00 +12°C° 0 mm 3 m/S 754 mmHg 73%
21:00 +12°C° 0 mm 3 m/S 754 mmHg 75%
22:00 +11°C° 0 mm 3 m/S 754 mmHg 77%
23:00 +10°C° 0 mm 3 m/S 754 mmHg 79%

Morgen, 12 Mai, Mittwoch

Zeit Temperatur Niederschläge Wind Luftdruck Luftfeuchtigkeit
00:00 +10°C° 0 mm 3 m/S 754 mmHg 83%
01:00 +10°C° 0 mm 3 m/S 754 mmHg 86%
02:00 +9°C° 0 mm 3 m/S 754 mmHg 90%
03:00 +9°C° 0 mm 3 m/S 754 mmHg 91%
04:00 +10°C° 0 mm 3 m/S 754 mmHg 93%
05:00 +10°C° 0 mm 3 m/S 754 mmHg 94%
06:00 +12°C° 0 mm 3 m/S 754 mmHg 89%
07:00 +13°C° 0 mm 4 m/S 754 mmHg 83%
08:00 +15°C° 0 mm 5 m/S 754 mmHg 77%
09:00 +16°C° 0 mm 5 m/S 754 mmHg 70%
10:00 +16°C° 0 mm 5 m/S 754 mmHg 63%
11:00 +17°C° 0 mm 6 m/S 754 mmHg 56%
12:00 +17°C° 0 mm 6 m/S 754 mmHg 53%
13:00 +19°C° 0 mm 6 m/S 753 mmHg 50%
14:00 +19°C° 0 mm 6 m/S 753 mmHg 47%
15:00 +19°C° 0 mm 5 m/S 753 mmHg 50%
16:00 +19°C° 0 mm 4 m/S 752 mmHg 53%
17:00 +18°C° 0 mm 4 m/S 752 mmHg 56%
18:00 +17°C° 0 mm 3 m/S 752 mmHg 62%
19:00 +14°C° 0 mm 3 m/S 751 mmHg 69%
20:00 +13°C° 0 mm 2 m/S 751 mmHg 75%
21:00 +13°C° 0 mm 2 m/S 750 mmHg 73%
22:00 +13°C° 0 mm 2 m/S 749 mmHg 72%
23:00 +13°C° 0 mm 2 m/S 749 mmHg 70%

übermorgen, 13 Mai, Donnerstag

Zeit Temperatur Niederschläge Wind Luftdruck Luftfeuchtigkeit
00:00 +13°C° 0.7 mm 2 m/S 748 mmHg 76%
01:00 +11°C° 0.7 mm 3 m/S 747 mmHg 83%
02:00 +11°C° 0.7 mm 3 m/S 746 mmHg 89%
03:00 +11°C° 1 mm 4 m/S 746 mmHg 91%
04:00 +9°C° 1 mm 5 m/S 746 mmHg 92%
05:00 +9°C° 1 mm 6 m/S 746 mmHg 94%
06:00 +10°C° 0 mm 6 m/S 746 mmHg 90%
07:00 +10°C° 0 mm 6 m/S 746 mmHg 86%
08:00 +11°C° 0 mm 6 m/S 746 mmHg 81%
09:00 +10°C° 0.2 mm 6 m/S 746 mmHg 81%
10:00 +10°C° 0.2 mm 6 m/S 746 mmHg 81%
11:00 +10°C° 0.2 mm 6 m/S 746 mmHg 81%
12:00 +9°C° 0.4 mm 6 m/S 746 mmHg 81%
13:00 +9°C° 0.4 mm 6 m/S 745 mmHg 81%
14:00 +9°C° 0.4 mm 7 m/S 745 mmHg 81%
15:00 +9°C° 0.5 mm 6 m/S 745 mmHg 84%
16:00 +9°C° 0.5 mm 5 m/S 745 mmHg 86%
17:00 +9°C° 0.5 mm 5 m/S 745 mmHg 89%
18:00 +10°C° 0.8 mm 4 m/S 745 mmHg 90%
19:00 +8°C° 0.8 mm 4 m/S 745 mmHg 91%
20:00 +8°C° 0.8 mm 4 m/S 745 mmHg 92%
21:00 +8°C° 0.1 mm 4 m/S 745 mmHg 92%
22:00 +8°C° 0.1 mm 4 m/S 745 mmHg 92%
23:00 +8°C° 0.1 mm 4 m/S 745 mmHg 92%

14 Mai, Freitag

Zeit Temperatur Niederschläge Wind Luftdruck Luftfeuchtigkeit
00:00 +8°C° 0.1 mm 4 m/S 745 mmHg 92%
01:00 +8°C° 0.1 mm 4 m/S 744 mmHg 93%
02:00 +8°C° 0.1 mm 4 m/S 744 mmHg 93%
03:00 +8°C° 1.4 mm 5 m/S 744 mmHg 94%
04:00 +8°C° 1.4 mm 5 m/S 743 mmHg 95%
05:00 +8°C° 1.4 mm 5 m/S 743 mmHg 96%
06:00 +9°C° 0.5 mm 5 m/S 743 mmHg 95%
07:00 +9°C° 0.5 mm 5 m/S 743 mmHg 93%
08:00 +10°C° 0.5 mm 6 m/S 743 mmHg 92%
09:00 +11°C° 0 mm 6 m/S 743 mmHg 91%
10:00 +11°C° 0 mm 6 m/S 743 mmHg 91%
11:00 +13°C° 0 mm 6 m/S 743 mmHg 90%
12:00 +13°C° 0.3 mm 6 m/S 743 mmHg 88%
13:00 +14°C° 0.3 mm 6 m/S 743 mmHg 87%
14:00 +14°C° 0.3 mm 6 m/S 743 mmHg 85%
15:00 +15°C° 0.2 mm 6 m/S 743 mmHg 83%
16:00 +15°C° 0.2 mm 5 m/S 743 mmHg 81%
17:00 +17°C° 0.2 mm 4 m/S 743 mmHg 79%
18:00 +15°C° 0.1 mm 4 m/S 743 mmHg 83%
19:00 +14°C° 0.1 mm 3 m/S 743 mmHg 87%
20:00 +13°C° 0.1 mm 2 m/S 743 mmHg 91%
21:00 +13°C° 0 mm 2 m/S 743 mmHg 92%
22:00 +12°C° 0 mm 2 m/S 743 mmHg 94%
23:00 +12°C° 0 mm 2 m/S 743 mmHg 95%

15 Mai, Samstag

Zeit Temperatur Niederschläge Wind Luftdruck Luftfeuchtigkeit
00:00 +10°C° 0 mm 2 m/S 743 mmHg 95%
01:00 +10°C° 0 mm 2 m/S 743 mmHg 95%
02:00 +9°C° 0 mm 2 m/S 743 mmHg 95%
03:00 +10°C° 0 mm 2 m/S 743 mmHg 96%
04:00 +11°C° 0 mm 1 m/S 743 mmHg 96%
05:00 +11°C° 0 mm 1 m/S 743 mmHg 96%
06:00 +12°C° 0 mm 1 m/S 743 mmHg 92%
07:00 +13°C° 0 mm 2 m/S 743 mmHg 89%
08:00 +14°C° 0 mm 2 m/S 743 mmHg 85%
09:00 +15°C° 0 mm 2 m/S 743 mmHg 81%
10:00 +16°C° 0 mm 2 m/S 743 mmHg 76%
11:00 +17°C° 0 mm 2 m/S 743 mmHg 71%
12:00 +17°C° 0 mm 3 m/S 743 mmHg 70%
13:00 +17°C° 0 mm 3 m/S 743 mmHg 69%
14:00 +18°C° 0 mm 3 m/S 743 mmHg 68%
15:00 +17°C° 0.1 mm 3 m/S 743 mmHg 70%
16:00 +17°C° 0.1 mm 3 m/S 743 mmHg 72%
17:00 +17°C° 0.1 mm 3 m/S 743 mmHg 74%
18:00 +16°C° 0.1 mm 3 m/S 743 mmHg 79%
19:00 +14°C° 0.1 mm 3 m/S 743 mmHg 84%
20:00 +13°C° 0.1 mm 3 m/S 744 mmHg 90%
21:00 +12°C° 0 mm 3 m/S 744 mmHg 92%
22:00 +11°C° 0 mm 3 m/S 744 mmHg 93%
23:00 +10°C° 0 mm 3 m/S 744 mmHg 95%

16 Mai, Sonntag

Zeit Temperatur Niederschläge Wind Luftdruck Luftfeuchtigkeit
00:00 +10°C° 0 mm 3 m/S 745 mmHg 95%
01:00 +10°C° 0 mm 3 m/S 745 mmHg 94%
02:00 +10°C° 0 mm 3 m/S 745 mmHg 93%
03:00 +9°C° 0 mm 2 m/S 745 mmHg 93%
04:00 +9°C° 0 mm 2 m/S 745 mmHg 94%
05:00 +9°C° 0 mm 2 m/S 745 mmHg 94%
06:00 +12°C° 0 mm 2 m/S 746 mmHg 88%
07:00 +13°C° 0 mm 2 m/S 746 mmHg 82%
08:00 +13°C° 0 mm 3 m/S 746 mmHg 77%
09:00 +14°C° 0.2 mm 3 m/S 746 mmHg 73%
10:00 +16°C° 0.2 mm 3 m/S 746 mmHg 69%
11:00 +17°C° 0.2 mm 3 m/S 746 mmHg 66%
12:00 +18°C° 0.3 mm 3 m/S 746 mmHg 65%
13:00 +18°C° 0.3 mm 4 m/S 746 mmHg 64%
14:00 +18°C° 0.3 mm 4 m/S 746 mmHg 63%
15:00 +18°C° 0.3 mm 4 m/S 747 mmHg 64%
16:00 +18°C° 0.3 mm 3 m/S 747 mmHg 66%
17:00 +17°C° 0.3 mm 3 m/S 747 mmHg 68%
18:00 +16°C° 0 mm 2 m/S 747 mmHg 72%
19:00 +15°C° 0 mm 2 m/S 747 mmHg 76%
20:00 +13°C° 0 mm 1 m/S 747 mmHg 80%
21:00 +12°C° 0 mm 1 m/S 748 mmHg 82%
22:00 +12°C° 0 mm 1 m/S 748 mmHg 84%
23:00 +10°C° 0 mm 0 m/S 748 mmHg 86%
Mehr zeigen

Wir brauchen deine Erlaubnis

Meteoprog und unser Service Anbieter werden persönliche Daten aufbewahren, so wie Cookies, Geräte Bezeichnung oder ähnliche Technologien von deinem Gerät und Prozess, so wie Persönliche Daten Inhalte und Werbungen, genauso wie social Media und den Verkehr zu analysieren.

  • Aufbewahrung und/oder Zugang zu deiner Geräte Informationen.

    Cookies, Geräte Bezeichnung oder andere Informationen, können aufbewahrt oder Zugang zu deinem Gerät erhalten, für den Grund, der oben angegeben wird.

  • Personalisierte Werbung und Inhalte, Messungen, Einblick in das Publikum und Produkt Entwicklung.

    Werbungen und Inhalte können personalisiert werden, basierend auf ein Profil. Mehr Daten können besser personalisierte Werbungen und Inhalte hinzufügen. Werbung und Inhalte können gezeigt und gemessen werden. Einblicke über das Publikum, welche die Werbung gesehen haben und den Inhalt, können abgeleitet werden. So wie Daten können genutzt werden, um es zu verbessern oder die Benutzer Erfahrung zu verbessern das System und die Software.

Wenn du “Ich stimme zu” klickst, erlaubst du uns, die Cookies zu benutzen die Geräte Bezeichnung, den Web oder ähnliche Technologien zu benutzen. Deine Settings, können in deinem Gerät bei deinem Browser geändert werden.

Für den bestimmten Zweck, berechtigten Interessen beruhen darauf, mehr als auf den Inhalt. Du kannst mehr darüber in unseren Privaten und Cookie Politik lesen.